Location: ?????
(55.6500°N, 37.2500°E)
Time: 03:18:21
(UTC+00:00)

Cosmos 2173 Rocket - Pass Details

Date: 19 May 2025
Orbit: 944 x 999 km, 83.0° (Epoch: 14 June)

Event Time Altitude Azimuth Distance (km) Brightness Sun altitude
Rises 21:23:19 0° 348° (NNW) 3,735 8.8 -14.4°
Reaches altitude 10° 21:25:53 10° 351° (N) 2,779 7.8 -14.4°
Maximum altitude 21:32:17 74° 76° (ENE) 1,037 4.2 -14.4°
Enters shadow 21:37:12 18° 160° (SSE) 2,236 5.3 -14.4°
